Погода в Эксмуте

Великобритания     50˚37′44″N   3˚24′32″W
темп.,
°C
ветер,
м/с
пор.,
м/с
влажн.,
%
обл.,
%
осадки,
мм/ч
давл.,
гПа
погр.,
м
15 января, пт
пт1500:00+4˚ссв359421 0.1 1026174
03:00+4˚св3588100 0.1 1028359
06:00+2˚св239097 0.1 1028103
09:00+2˚всв1383100 0.0 1030212
12:00+4˚юв3378100 0.0 1030452
15:00+4˚ююв4579100 0.0 1030559
18:00+3˚ююв378498 0.0 1029275
21:00+4˚ю4988100 0.0 1028349
16 января, сб
сб1600:00+5˚ю71288100 0.1 1025667
03:00+7˚ю61494100 3.8 1021845
06:00+8˚ююз81594100 5.8 1017654
09:00+10˚зсз81492100 3.4 1016664
12:00+9˚сз9138396 3.4 1018933
15:00+8˚сз8138294 0.0 1019805
18:00+5˚сз5128992 0.0 1021472
21:00+3˚сз25927 0.0 1023123
17 января, вс
вс1700:00+2˚зсз229220 0.0 102483
03:00+3˚сз41090100 0.0 1024300
06:00+3˚сз4987100 0.0 1025221
09:00+3˚зсз2488100 0.0 1026125
12:00+7˚зсз3576100 0.0 1027700
15:00+7˚зсз248097 0.0 1026569
18:00+4˚з228994 0.0 102635
21:00+3˚зюз228898 0.0 102632
18 января, пн
пн1800:00+2˚зюз228675 0.0 102630
03:00+1˚ююз12862 0.0 102331
06:00+1˚ю128710 0.0 102236
09:00+4˚ююв278870 0.0 1021269
12:00+7˚ю588884 0.0 1019531
15:00+7˚ю5997100 0.3 1016441
18:00+8˚ююв51098100 0.4 1013393
21:00+10˚юз51496100 1.6 1010642
19 января, вт
вт1900:00+11˚зюз71590100 1.8 1009909
03:00+10˚юз81588100 0.0 10071043
06:00+10˚юз81586100 0.1 10051038
09:00+9˚ююз101890100 0.7 10031026
12:00+10˚ююз111886100 2.3 9991183
15:00+10˚ююз111993100 3.4 9951134
18:00+11˚ююз112089100 4.9 9921190
21:00+11˚ююз122287100 3.4 9881332